This is the latest recevied weather packets stored in our database for station/object K5NAN. If no packets are shown the sender has not sent any weather packets the latest 10 day(s).
| Time | Temp. | Humidity | Pressure | Rain* | Wind** | Luminosity | Snow |
|---|---|---|---|---|---|---|---|
| 1777731229 | 15.56° C | 70% | 1020.5 hPa | 0 mm | - | 359 W/m² | - |
| 1777730926 | 15° C | 69% | 1020.5 hPa | 0 mm | - | 342 W/m² | - |
| 1777730624 | 15° C | 71% | 1020.4 hPa | 0 mm | - | 326 W/m² | - |
| 1777730320 | 15° C | 73% | 1020.4 hPa | 0 mm | - | 309 W/m² | - |
| 1777730017 | 14.44° C | 74% | 1020.3 hPa | 0 mm | - | 293 W/m² | - |
| 1777729713 | 13.89° C | 75% | 1020.1 hPa | 0 mm | - | 276 W/m² | - |
| 1777729410 | 13.33° C | 76% | 1020.1 hPa | 0 mm | - | 260 W/m² | - |
| 1777729106 | 13.33° C | 78% | 1020.1 hPa | 0 mm | - | 236 W/m² | - |
| 1777728803 | 12.78° C | 80% | 1020 hPa | 0 mm | - | 209 W/m² | - |
| 1777728500 | 12.78° C | 80% | 1020 hPa | 0 mm | - | 180 W/m² | - |
| 1777728197 | 12.22° C | 81% | 1019.7 hPa | 0 mm | - | 150 W/m² | - |
| 1777727894 | 12.22° C | 82% | 1019.9 hPa | 0 mm | - | 131 W/m² | - |
| 1777727591 | 11.67° C | 83% | 1019.8 hPa | 0 mm | - | 114 W/m² | - |
| 1777727288 | 11.67° C | 84% | 1019.7 hPa | 0 mm | - | 106 W/m² | - |
| 1777726380 | 11.11° C | 86% | 1019.5 hPa | 0 mm | - | 74 W/m² | - |
| 1777726076 | 10.56° C | 87% | 1019.6 hPa | 0 mm | - | 67 W/m² | - |
| 1777725471 | 10° C | 87% | 1019.3 hPa | 0 mm | - | 53 W/m² | - |
| 1777724865 | 9.44° C | 88% | 1019.2 hPa | 0 mm | - | 42 W/m² | - |
| 1777724561 | 9.44° C | 88% | 1019.1 hPa | 0 mm | - | 37 W/m² | - |
| 1777724260 | 9.44° C | 88% | 1019.1 hPa | 0 mm | - | 33 W/m² | - |
| 1777723957 | 8.89° C | 88% | 1018.8 hPa | 0 mm | - | 28 W/m² | - |
| 1777723653 | 8.89° C | 88% | 1018.7 hPa | 0 mm | - | 23 W/m² | - |
| 1777723350 | 8.89° C | 89% | 1018.6 hPa | 0 mm | - | 19 W/m² | - |
| 1777722745 | 8.89° C | 89% | 1018.6 hPa | 0 mm | - | 11 W/m² | - |
| 1777722440 | 8.89° C | 90% | 1018.5 hPa | 0 mm | - | 8 W/m² | - |
* Rain latest hour (hover to see other rain measurements)
** Current wind speed in m/s (hover to see current wind gust speed)